Location: ????
(55.5675°N, 37.6272°E)
Time: 14:37:42
(UTC+00:00)

Cosmos 1606 Rocket - Pass Details

Date: 14 April 2026
Orbit: 595 x 625 km, 82.5° (Epoch: 17 May)

Event Time Altitude Azimuth Distance (km) Brightness Sun altitude
Exits shadow 23:37:13 47° 207° (SSW) 833 3.7 -19.5°
Maximum altitude 23:38:26 77° 283° (WNW) 647 3.5 -19.4°
Drops below altitude 10° 23:42:54 10° 10° (N) 2,006 7.1 -19.1°
Sets 23:45:08 0° 12° (NNE) 2,914 8.2 -18.9°
